Regional Weather Roundup
Issued by NWS Sterling, VA

Home | Current Version | Previous Version | Text Only | Print | Product List | Glossary On
Versions: 1 2 3 4 5 6 7 8 9 10 11 12 13 14 15 16 17 18 19 20 21 22 23 24 25 26 27 28
000
ASUS41 KLWX 280210
RWRLWX

REGIONAL WEATHER ROUNDUP
NATIONAL WEATHER SERVICE BALTIMORE MD/WASHINGTON DC
1000 PM EDT FRI MAY 27 2016

Note: "FAIR" indicates few or no clouds below 12,000 feet
with no significant weather and/or obstructions to visibility.
 TC=TEMPERATURE CELSIUS

 * =Non NWS site. Station does not report precipitation (e.g. rain,
    snow, etc.), thunder, or fog.

DCZ001-MDZ009-015-VAZ040>042-051-053>054-280300-
WASHINGTON METRO

CITY           SKY/WX    TMP DP  RH WIND       PRES   REMARKS
WASHINGTON NAT FAIR      77  69  76 S7        30.08R
DULLES         MOCLDY    80  67  64 S5        30.08R
ANDREWS AFB    PTCLDY    76  68  76 S9        30.08R
FT BELVOIR     FAIR      74  70  86 CALM      30.08R
QUANTICO       FAIR      77  68  73 SW7       30.08R
COLLEGE PARK*  FAIR      77  68  73 SE3       30.07R
LEESBURG*      FAIR      79  70  73 CALM      30.09R
MANASSAS*      PTCLDY    77  70  78 CALM      30.08R

$$

MDZ006>007-011-014-280300-
BALTIMORE METRO

CITY           SKY/WX    TMP DP  RH WIND       PRES   REMARKS
BWI AIRPORT    CLOUDY    74  65  73 SE5       30.07R
MD SCIENCE CTR   N/A     76  64  66 MISG      30.08R
MARTIN STATE   MOCLDY    75  66  73 S16G23    30.09R
ANNAPOLIS      CLEAR     72  63  73 S12       30.08R
FORT MEADE*    CLOUDY    70  64  83 CALM      30.10R

$$

MDZ012-015-019>023-280300-
MARYLAND EASTERN SHORE

CITY           SKY/WX    TMP DP  RH WIND       PRES   REMARKS
OCEAN CITY     CLEAR     71  60  68 SW17G24   30.14R
SALISBURY      CLEAR     71  57  61 S10       30.13R
BAY BRIDGE AP* CLEAR     75  63  64 S13G18    30.09R
CAMBRIDGE*     CLEAR     72  61  68 S9        30.11R
EASTON*        CLEAR     76  64  65 S10       30.14R

$$

MDZ017>025-280300-
SOUTHERN MARYLAND

CITY           SKY/WX    TMP DP  RH WIND       PRES   REMARKS
PATUXENT RIVER PTCLDY    74  60  61 S9        30.10R
ST INIGOES     CLEAR     73  63  70 SE10G18   30.10R
LEONARDTOWN*   CLEAR     72  61  68 SE6       30.12R

$$

MDZ003>005-280300-
NORTH CENTRAL MARYLAND

CITY           SKY/WX    TMP DP  RH WIND       PRES   REMARKS
FREDERICK*     MOCLDY    77  68  73 CALM      30.10S
HAGERSTOWN APT CLOUDY    73  67  81 CALM      30.08S
WESTMINSTER*   LGT RAIN  73  70  88 SW10G20   30.11R

$$

MDZ501>502-280300-
WESTERN MARYLAND

CITY           SKY/WX    TMP DP  RH WIND       PRES   REMARKS
OAKLAND*       PTCLDY    64  61  88 SE7       30.18R
CUMBERLAND*    PTCLDY    70  70 100 CALM      30.13R

$$

VAZ025>031-280300-
SHENANDOAH VALLEY

CITY           SKY/WX    TMP DP  RH WIND       PRES   REMARKS
WINCHESTER*    FAIR      70  66  88 CALM      30.10R
FRONT ROYAL*   FAIR      68  68 100 CALM      30.09R
LURAY*         FAIR      70  68  94 CALM      30.11R
NEW MARKET*    FAIR      68  66  91 CALM      30.11R
STAUNTON*      HVY RAIN  68  65  90 S5        30.16R
WAYNESBORO*    FAIR      68  66  93 SW3       30.15R

$$

WVZ021-048>050-054>055-280300-
EASTERN WEST VIRGINIA PANHANDLE

CITY           SKY/WX    TMP DP  RH WIND       PRES   REMARKS
MARTINSBURG    FAIR      71  64  78 SE3       30.08S
PETERSBURG*    FAIR      69  69  99 CALM      30.12S FOG

$$

VAZ036>039-050-280300-
CENTRAL FOOTHILLS

CITY           SKY/WX    TMP DP  RH WIND       PRES   REMARKS
CHARLOTTESVILL MOCLDY    78  67  68 S7        30.09R
CULPEPER*      CLOUDY    75  71  87 CALM      30.09R
ORANGE*        FAIR      75  68  78 CALM      30.11R
GORDONSVILLE*  FAIR      73  69  88 CALM      30.09R
WARRENTON*     MOCLDY    78  64  62 CALM      30.08R

$$

VAZ055>057-280300-
NORTH AND CENTRAL PIEDMONT

CITY           SKY/WX    TMP DP  RH WIND       PRES   REMARKS
FREDERICKSBRG* FAIR      77  69  75 S6        30.07R
STAFFORD*      FAIR      75  67  74 CALM      30.12R

$$

NCZ024-NYZ072-PAZ021-071-VAZ022-071-280300-
OTHER REGIONAL OBSERVATIONS

CITY           SKY/WX    TMP DP  RH WIND       PRES   REMARKS
NEW YORK CITY  CLEAR     78  63  59 VRB6      30.07R
PHILADELPHIA   MOCLDY    78  65  63 S8        30.09R
PITTSBURGH     PTCLDY    80  62  54 SW3       30.05R
ROANOKE        FAIR      74  65  73 SE5       30.14R
RICHMOND       FAIR      75  65  70 S9        30.11R
RALEIGH        PTCLDY    76  57  51 S8        30.12R

$$

ANZ530>537-280300-
MARINE OBSERVATIONS

STATION/POSITION TIME  TEMP    WIND        PRES
                       AIR SEA DIR/SP/G
                 (UTC) (F)     (DEG/KT/KT) (MB)
THOMAS PT LIGHT  0200   72 67  170/ 22/ 25 1019.7R
BALT KEY BRIDGE  0100          160/ 12/ 13 1017.7R
COVE POINT       0100          190/ 17/ 19 1019.2R
LEWISETTA        0100          190/ 11/ 13 1018.6R
SOLOMONS ISLAND  0100          180/ 13/ 15   N/A
PINEY POINT      0100          170/  9/ 11   N/A

$$





USA.gov is the U.S. government's official web portal to all federal, state and local government web resources and services.